Change the Weather History Date:

Sunday, August 10, 2014

  Actual Average Record
Temperature  
Mean Temperature 74 °F -  
Max Temperature 88 °F - - ()
Min Temperature 59 °F - - ()
Cooling Degree Days 8    
Growing Degree Days 24 (Base 50)    
Moisture  
Dew Point 62 °F    
Average Humidity 60    
Maximum Humidity 94    
Minimum Humidity 31    
Precipitation  
Precipitation 0.00 in - - ()
Sea Level Pressure  
Sea Level Pressure 29.91 in    
Wind  
Wind Speed 4 mph ()    
Max Wind Speed 14 mph    
Max Gust Speed -    
Visibility 11.6 miles    
Events      
T = Trace of Precipitation, MM = Missing Value Source: Averaged Metar Reports

Daily Weather History Graph

Daily Weather History Graph

Search for Another Location

Airport or City:

Trip Planner

Search our weather history database for the weather conditions in past years. The results will help you decide how hot, cold, wet, or windy it might be!

Date:

Astronomy

Aug. 10, 2014 Rise Set
Actual Time 5:38 AM CEST 8:24 PM CEST
Civil Twilight 5:01 AM CEST 9:01 PM CEST
Nautical Twilight 4:14 AM CEST 9:48 PM CEST
Astronomical Twilight 3:16 AM CEST 10:45 PM CEST
Moon 7:51 PM CEST (8/10) 5:13 AM CEST (8/10)
Length of Visible Light 15h 59m
Length of Day
14h 45m
Full, 100% of the Moon is Illuminated
Aug 10
Full
Aug 10
Full
Aug 17
Last Quarter
Aug 25
New
Sep 2
First Quarter

Hourly Weather History & Observations

Time (CEST) Temp. Heat Index Dew Point Humidity Pressure Visibility Wind Dir Wind Speed Gust Speed Precip Events Conditions
12:00 AM 71 °F - 61 °F 62% 29.97 in 12 mi SSW 2.2 mph - -   Partly Cloudy
12:00 AM 71.6 °F - 60.8 °F 69% 29.98 in - Variable 2.3 mph - N/A   Clear
1:00 AM 69 °F - 60 °F 66% 29.98 in 12 mi SW 2.2 mph - -   Partly Cloudy
2:00 AM 69 °F - 60 °F 66% 29.98 in 12 mi WNW 4.5 mph - -   Partly Cloudy
2:00 AM 69.8 °F - 60.8 °F 73% 29.98 in - WNW 4.6 mph - N/A   Clear
3:00 AM 66 °F - 60 °F 75% 29.97 in 12 mi Calm Calm - -   Scattered Clouds
3:00 AM 66.2 °F - 60.8 °F 83% 29.98 in - Variable 2.3 mph - N/A   Clear
4:00 AM 64 °F - 59 °F 79% 29.96 in 12 mi Calm Calm - -   Clear
4:00 AM 64.4 °F - 59.0 °F 83% 29.98 in - Calm Calm - N/A   Clear
5:00 AM 61 °F - 59 °F 89% 29.96 in 12 mi East 2.2 mph - -   Clear
5:00 AM 60.8 °F - 59.0 °F 94% 29.95 in - East 3.5 mph - N/A   Clear
6:00 AM 60 °F - 58 °F 92% 29.97 in 12 mi SW 2.2 mph - -   Clear
7:00 AM 63 °F - 61 °F 89% 29.98 in 12 mi SW 2.2 mph - -   Scattered Clouds
8:00 AM 67 °F - 63 °F 83% 29.98 in 12 mi East 2.2 mph - -   Mostly Cloudy
8:00 AM 66.2 °F - 62.6 °F 88% 29.98 in - Variable 2.3 mph - N/A   Clear
9:00 AM 70 °F - 63 °F 73% 29.98 in 12 mi ENE 2.2 mph - -   Mostly Cloudy
9:00 AM 69.8 °F - 62.6 °F 78% 29.98 in - Variable 1.2 mph - N/A   Clear
10:00 AM 75 °F - 62 °F 55% 29.96 in 12 mi ENE 2.2 mph - -   Scattered Clouds
10:00 AM 75.2 °F - 60.8 °F 61% 29.98 in - East 3.5 mph - N/A   Clear
11:00 AM 79 °F - 62 °F 46% 29.94 in 12 mi East 6.7 mph - -   Partly Cloudy
11:00 AM 78.8 °F - 62.6 °F 57% 29.95 in - East 5.8 mph - N/A   Clear
12:00 PM 81 °F - 63 °F 44% 29.91 in 12 mi East 6.7 mph - -   Scattered Clouds
12:00 PM 80.6 °F 81.8 °F 62.6 °F 54% 29.95 in 6.2 mi Variable 5.8 mph - N/A   Scattered Clouds
1:00 PM 83 °F - 63 °F 40% 29.88 in 12 mi SE 8.9 mph - -   Partly Cloudy
1:00 PM 82.4 °F 83.4 °F 62.6 °F 51% 29.92 in 6.2 mi SE 6.9 mph - N/A   Scattered Clouds
2:00 PM 86 °F - 62 °F 35% 29.86 in 12 mi SSE 8.9 mph - -   Partly Cloudy
2:00 PM 86.0 °F 86.6 °F 62.6 °F 45% 29.89 in - SSE 9.2 mph - N/A   Clear
3:00 PM 85 °F - 61 °F 34% 29.85 in 12 mi SSE 8.9 mph - -   Partly Cloudy
3:00 PM 86.0 °F 86.1 °F 60.8 °F 43% 29.89 in - SSE 10.4 mph - N/A   Clear
4:00 PM 87 °F - 61 °F 31% 29.83 in 12 mi South 13.4 mph - -   Scattered Clouds
4:00 PM 87.8 °F 87.6 °F 60.8 °F 40% 29.86 in - South 13.8 mph - N/A   Clear
5:00 PM 87 °F - 61 °F 32% 29.82 in 12 mi South 11.2 mph - -   Scattered Clouds
5:00 PM 87.8 °F 87.6 °F 60.8 °F 40% 29.86 in - South 12.7 mph - N/A   Clear
6:00 PM 85 °F - 62 °F 35% 29.81 in 12 mi South 8.9 mph - -   Scattered Clouds
6:00 PM 86.0 °F 86.1 °F 60.8 °F 43% 29.86 in - South 9.2 mph - N/A   Clear
7:00 PM 84 °F - 62 °F 37% 29.80 in 12 mi SSE 8.9 mph - -   Scattered Clouds
8:00 PM 81 °F - 62 °F 43% 29.81 in 12 mi ESE 6.7 mph - -   Scattered Clouds
8:00 PM 80.6 °F 81.8 °F 62.6 °F 54% 29.83 in - ESE 6.9 mph - N/A   Clear
9:00 PM 76 °F - 63 °F 56% 29.82 in 12 mi East 6.7 mph - -   Scattered Clouds
9:00 PM 77.0 °F - 64.4 °F 65% 29.83 in - East 5.8 mph - N/A   Clear
10:00 PM 74 °F - 64 °F 62% 29.82 in 12 mi ESE 4.5 mph - -   Clear
10:00 PM 75.2 °F - 64.4 °F 69% 29.83 in - ESE 5.8 mph - N/A   Clear
11:00 PM 73 °F - 64 °F 65% 29.81 in 12 mi East 8.9 mph - -   Scattered Clouds
11:00 PM 73.4 °F - 62.6 °F 69% 29.83 in - East 8.1 mph - N/A   Clear